Regional Weather Roundup
Issued by NWS

Home | Current Version | Previous Version | Text Only | Print | Product List | Glossary Off
Versions: 1 2 3 4 5 6 7 8 9 10 11 12 13 14 15 16 17 18 19 20 21 22 23 24 25 26 27 28 29 30 31 32 33 34 35 36 37 38 39 40 41 42 43 44 45 46 47 48 49 50

000
ASUS43 KLMK 280510
RWRKY
KENTUCKY REGIONAL WEATHER ROUNDUP
NATIONAL WEATHER SERVICE LOUISVILLE KY
100 AM EDT THU JUL 28 2016

NOTE "FAIR" INDICATES FEW OR NO CLOUDS BELOW 12,000 FEET
WITH NO SIGNIFICANT WEATHER AND/OR OBSTRUCTIONS TO VISIBILITY.

KYZ001>023-026-027-061>063-070>075-280600-
WESTERN AND SOUTH CENTRAL KENTUCKY

CITY           SKY/WX    TMP DP  RH WIND       PRES   REMARKS
PADUCAH        LGT RAIN  73  71  93 CALM      29.92F FOG
HENDERSON      NOT AVBL
OWENSBORO      CLOUDY    75  73  94 S3        29.94F
HOPKINSVILLE   RAIN      72  72 100 NE2       29.97F
BOWLING GREEN  CLOUDY    75  73  93 W5        29.96S
GLASGOW        CLOUDY    75  74  98 N5        29.95S
$$

KYZ024-025-028>034-038-045-046-053-280600-
NORTH CENTRAL KENTUCKY

CITY           SKY/WX    TMP DP  RH WIND       PRES   REMARKS
LOUISVILLE/SDF CLOUDY    79  73  82 CALM      29.93F
LOUISVILLE/LOU CLOUDY    77  74  90 CALM      29.94F
FORT KNOX      CLOUDY    75  73  93 SW7       29.94S
$$

KYZ035>037-039>044-047>052-055>060-089>105-280600-
NORTHEAST KENTUCKY

CITY           SKY/WX    TMP DP  RH WIND       PRES   REMARKS
LEXINGTON      CLOUDY    78  74  87 S3        29.97S
COVINGTON      CLOUDY    77  75  93 W3        29.95F
FRANKFORT      TSTM      73  69  87 NW7       29.95S
$$

KYZ054-064>069-076>088-106>120-280600-
SOUTHEAST KENTUCKY

CITY           SKY/WX    TMP DP  RH WIND       PRES   REMARKS
JACKSON        LGT RAIN  71  70  96 VRB3      30.02S FOG
LONDON         LGT RAIN  70  67  90 S6        30.02S
SOMERSET       CLOUDY    72  72 100 CALM      30.02R
MIDDLESBORO    CLOUDY    71  71  99 CALM      30.05F THUNDER
MONTICELLO     CLOUDY   N/A N/A N/A VRB7      30.00F
$$





USA.gov is the U.S. government's official web portal to all federal, state and local government web resources and services.